Location: Baix
(44.7118°N, 4.7648°E)
Time: 12:27:45
(UTC+00:00)

Vanguard 2 Rocket - Pass Details

Date: 04 December 2020
Orbit: 554 x 3325 km, 32.9° (Epoch: 23 January)

Event Time Altitude Azimuth Distance (km) Brightness Sun altitude
Rises 10:11:54 0° 271° (W) 7,288 11.3 20.6°
Reaches altitude 10° 10:17:05 10° 267° (W) 6,286 11.1 20.9°
Maximum altitude 10:35:20 47° 203° (SSW) 3,499 10.8 21.8°
Drops below altitude 10° 10:48:23 10° 135° (SE) 4,590 11.5 22.2°
Sets 10:51:31 0° 129° (SE) 5,260 11.5 22.3°
